Other Public Products
Issued by NWS Grand Forks, ND

Home | Current Version | Previous Version | Text Only | Print | Product List | Glossary Off
Versions: 1 2 3 4 5 6 7 8 9 10 11 12 13 14 15 16 17 18 19 20 21 22 23 24 25 26 27 28 29 30 31 32 33 34 35 36 37 38 39 40 41 42 43 44 45 46 47 48 49 50

000
FPUS83 KFGF 251631
OPUFGF
PRAIRIE TO PINES WEATHER ROUNDUP
NATIONAL WEATHER SERVICE EASTERN NORTH DAKOTA/GRAND FORKS ND
1100 AM CDT SAT APR 25 2015

 **SATELLITE DATA USED TO AUGMENT SKY COVER AT AUTOMATED STATIONS**
 *****  WEATHER ACROSS EASTERN NORTH DAKOTA  *****

CITY           SKY/WX    TMP DP  RH WIND       PRES   REMARKS
GRAND FORKS    CLOUDY    48  34  58 SE8       29.91R
GRAND FORKS AF CLOUDY    47  33  59 SE8       29.91R
GRAND CITY NWS   N/A     50 N/A N/A SE12        N/A
BUXTON         NOT AVBL
DEVILS LAKE    CLOUDY    48  36  61 E14       29.86R
FARGO          CLOUDY    47  37  68 E10       29.88R
WAHPETON ARPT  CLOUDY    45  36  70 SE13      29.88R
$$

 *****  WEATHER ACROSS CENTRAL AND WESTERN NORTH DAKOTA  *****

CITY           SKY/WX    TMP DP  RH WIND       PRES   REMARKS
JAMESTOWN      CLOUDY    43  40  89 E13       29.85R
BISMARCK       CLOUDY    47  42  83 SE15      29.81R
MINOT          CLOUDY    46  39  76 E15       29.81S
MINOT AFB      CLOUDY    46  45  99 SE17      29.81S
GARRISON         N/A     46  42  86 SE14      29.79R
WILLISTON      LGT RAIN  51  42  71 SE15G23   29.73S
DICKINSON      FOG       44  42  93 SE13      29.72R VSB 3/4
HETTINGER      FOG       44  42  93 E14       29.74R VSB 1
$$

 *****  OTHER OBSERVATIONS NORTHEAST NORTH DAKOTA  *****

CITY           SKY/WX    TMP DP  RH WIND       PRES   REMARKS
WALHALLA       FAIR      50  36  57 E10       29.92S
LANGDON        FAIR      52  36  54 E17       29.89R
CAVALIER       FAIR      50  36  57 E13G18    29.92R
GRAFTON        PTSUNNY   52  36  54 SE13      29.92R
CANDO          PTSUNNY   50  37  62 SE10      29.87F
FORT TOTTEN    NOT AVBL
ROLLA          FAIR      48  36  61 E14G21    29.87S
RUGBY          NOT AVBL
 ***** THE ABOVE OBSERVATIONS ARE NON NWS ARE NOT QUALITY
        CONTROLLED AND MAY MIS-REPORT RAIN FOR SNOW...
$$

 *****  OTHER OBSERVATIONS SOUTHEAST NORTH DAKOTA *****

CITY           SKY/WX    TMP DP  RH WIND       PRES   REMARKS
COOPERSTOWN    NOT AVBL
VALLEY CITY    CLOUDY    43  43 100 E8        29.87R
OAKES            N/A     43  43 100 E15       29.85R FOG
GWINNER        CLOUDY    45  45 100 E14       29.87R
SHEYENNE NWR     N/A     45  39  80 SE12      29.95S
BUFFALO        NOT AVBL
WYNDMERE       NOT AVBL
 ***** THE ABOVE OBSERVATIONS ARE NON NWS ARE NOT QUALITY
       CONTROLLED AND MAY MIS-REPORT RAIN FOR SNOW...
$$

  *****  WEATHER ACROSS NORTHERN MINNESOTA  *****

CITY           SKY/WX    TMP DP  RH WIND       PRES   REMARKS
FLAG ISLAND    SUNNY     46  25  42 E6        29.98S
WARROAD        SUNNY     45  28  53 NE14      29.98R
ROSEAU         SUNNY     52  30  43 NE14      29.95S
HALLOCK        SUNNY     54  32  43 SE12G18   29.92R
THF RVR FALLS  SUNNY     52  32  46 E12       29.92S
HALSTAD        NOT AVBL
FOSSTON        CLOUDY    54  34  47 E9G16     29.91R
BAUDETTE       SUNNY     50  24  36 E8        29.96S
WASKISH        SUNNY     54  30  40 CALM      29.95R
CROOKSTON      SUNNY     54  36  50 SE9       29.91S
$$
  *****  WEATHER ACROSS CENTRAL AND WEST MINNESOTA  *****

CITY           SKY/WX    TMP DP  RH WIND       PRES   REMARKS
BEMIDJI        SUNNY     48  32  53 E14       29.92S
PARK RAPIDS    MOSUNNY   50  33  52 E13       29.90R
WADENA         MOSUNNY   48  37  66 E12G18    29.89R
DETROIT LAKES  MOSUNNY   50  36  57 SE10      29.89R
MOORHEAD       PTSUNNY   46  36  66 E9        29.90R
FERGUS FALLS   PTSUNNY   45  34  65 SE9       29.90R
ELBOW LAKE     CLOUDY    42  37  82 E12       29.87R
MORRIS MN      MOSUNNY   45  41  87 E16       29.85R
STAPLES        PTSUNNY   46  34  61 E9        29.90R
WHEATON        CLOUDY    41  39  93 E14       29.89R FOG
$$
  *****  WEATHER ELSEWHERE ACROSS MINNESOTA  *****

CITY           SKY/WX    TMP DP  RH WIND       PRES   REMARKS
DULUTH         CLOUDY    37  25  61 E12G22    29.97R
INTRNTL FALLS  SUNNY     47  22  37 E12       29.98S
ELY            MOSUNNY   46  12  25 NE9       29.97S
CLOQUET        CLOUDY    39  27  60 E12G17    29.97R
BRAINERD       CLOUDY    44  33  65 VRB7      29.91R
HIBBING        CLOUDY    42  21  43 E6        29.96R
ALEXANDRIA     CLOUDY    42  37  82 E13       29.87R
SAINT CLOUD    CLOUDY    48  38  68 E6        29.88R
MINNEAPOLIS    MOSUNNY   50  36  58 E13       29.86S
$$

  *****  WEATHER ACROSS SOUTH DAKOTA  *****

CITY           SKY/WX    TMP DP  RH WIND       PRES   REMARKS
SIOUX FALLS    CLOUDY    50  42  74 E14       29.73S
BROOKINGS      CLOUDY    45  41  87 E12       29.79R
WATERTOWN      CLOUDY    43  40  89 E9        29.79R FOG
HURON          CLOUDY    48  43  82 E9        29.78R
SISSETON         N/A     43  43 100 SE13      29.84R
ABERDEEN       CLOUDY    46  42  86 E10       29.82R
MITCHELL       LGT RAIN  48  45  89 E9        29.77R FOG
PIERRE         CLOUDY    46  45  96 E10       29.75S FOG
MOBRIDGE       CLOUDY    47  43  86 E14       29.76R
RAPID CITY     FOG       46  45  96 SE7       29.71R VSB 1/2
$$

  *****  SOME WEATHER IN NEARBY STATES *****

CITY           SKY/WX    TMP DP  RH WIND       PRES   REMARKS
GLASGOW MT     CLOUDY    47  39  74 NW23G35   29.67R
GREAT FALLS MT PTSUNNY   44  36  73 SW10      29.79S
CHEYENNE WY    PTSUNNY   57  32  38 SW8       29.75S
SCOTTSBLUFF NE SUNNY     58  32  37 VRB5      29.72S
OMAHA NE       CLOUDY    49  45  86 NE16      29.63R
DES MOINES IA  CLOUDY    47  43  86 E15G23    29.63R
DAVENPORT IA   LGT RAIN  45  42  89 E15       29.72F FOG
CHICAGO IL     LGT RAIN  43  39  86 E12       29.78R
EAU CLAIRE WI  MOSUNNY   51  28  41 NE14      29.87S
LA CROSSE WI   CLOUDY    48  38  68 NE10      29.85R
$$

  *****  SOME NATIONAL WEATHER *****

CITY           SKY/WX    TMP DP  RH WIND       PRES   REMARKS
LA GUARDIA NY  MOSUNNY   50  23  34 NW12G20   29.85F
RALEIGH NC     LGT RAIN  55  52  88 SW9       29.88F
ATLANTA GA     CLOUDY    67  61  81 SW7       29.80S
NEW ORLEANS LA PTSUNNY   85  73  67 SW10      29.78S HX  91
OKLAHOMA CITY  SUNNY     74  52  46 SW10      29.66S
ALBUQUERQUE NM MOSUNNY   55  36  48 VRB5      29.97F
SALT LAKE CITY PTSUNNY   49  37  63 SE6       29.80F
LOS ANGELES CA PTSUNNY   59  52  77 W9        29.99S
BOISE ID       CLOUDY    48  35  60 NW3       29.81S
SEATTLE WA     PTSUNNY   47  42  83 S8        29.97R
$$

*** WEATHER ACROSS MANITOBA...SASKATCHEWAN AND ONTARIO ***
                ***ONTARIO***

CITY           SKY/WX    TMP DP  RH WIND       PRES   REMARKS
GERALDTON      MOSUNNY   39  16  38 E3        30.08F
THUNDER BAY    MOSUNNY   43  18  36 E8        30.07S
SIOUX LOOKOUT  MOSUNNY   45  23  42 VRB2      30.05S
TORONTO        MOSUNNY   46  25  42 VRB9      29.94F
BIG TROUT LK   SUNNY     30  19  64 S5        30.18S
PICKLE LAKE    SUNNY     39  16  38 NW6       30.11S
DRYDEN         CLOUDY    41  21  45 NE5       30.04R
KENORA         PTSUNNY   45  21  39 E9        30.01R
$$
                *** MANITOBA***

CITY           SKY/WX    TMP DP  RH WIND       PRES   REMARKS
BRANDON        PTSUNNY   48  37  66 E10       29.90F
DAUPHIN        SUNNY     48  36  61 E14       29.92F
ISLAND LAKE    PTSUNNY   39  18  41 SE9       30.10R
PILOT MOUND      N/A     50  36  57 E12         N/A
THE PAS        CLOUDY    28  25  86 N7        30.04R WCI  21
THOMPSON       LGT SNOW  28  25  86 NE5       30.09R VSB 1   WCI  23
WINNIPEG       MOSUNNY   50  30  46 E7        29.96S
LYNN LAKE      SUNNY     32  12  43 W6        30.11S
CHURCHILL      CLOUDY    28  14  54 SE10      30.25S WCI  19
GILLAM         MOSUNNY   37  18  44 SE12G21   30.14S
$$
                ***SASKATCHEWAN***

CITY           SKY/WX    TMP DP  RH WIND       PRES   REMARKS
ESTEVAN        CLOUDY    43  37  81 SE21G26   29.79R FOG
KINDERSLEY     CLOUDY    30  28  93 NE18      29.83R WCI  18
LLOYDMINSTER   CLOUDY    34  19  55 E18       29.92R WCI  23
PRINCE ALBERT  CLOUDY    32  23  69 E14       29.99R WCI  22
REGINA         LGT RAIN  45  43  93 SE14G20   29.77R FOG



USA.gov is the U.S. government's official web portal to all federal, state and local government web resources and services.